Location: Bartshausen
(51.8454°N, 9.8167°E)
Time: 23:02:35
(UTC+00:00)

Iridium 4 Rocket - Pass Details

Date: 15 February 2026
Orbit: 579 x 887 km, 86.9° (Epoch: 11 March)

Event Time Altitude Azimuth Distance (km) Brightness Sun altitude
Rises 18:52:26 0° 359° (N) 3,139 6.8 -21.7°
Reaches altitude 10° 18:54:55 10° 6° (N) 2,163 5.9 -22.1°
Enters shadow 18:57:51 32° 28° (NNE) 1,138 4.2 -22.6°
